[[{"header":{"parameterUnit":"m.s-1","parameterCategory":1,"la1":30.2991,"la2":30.254,"lo1":-89.0895,"lo2":-89.0444,"dy":0.0017,"dx":0.0017,"nx":28,"ny":28,"refTime":"2024-12-08T03:00:00:Z","depth":0,"parameterNumber":2,"parameterNumberName":"U-component_of_WINDS"},"data":[0,0,0,0,0,0,0,0,0,0,0,0,0,0,0,0,0,0,0,0,0,0,0,0,0,0,0,0,0,0,0,0,0,0,0,0,0,0,0,0,0,0,0,0,0,0,0,0,0,0,0,0,0,0,0,0,0,0,1.1093,1.1093,0,1.1083,1.1083,1.1082,1.1043,1.1043,1.1042,1.1041,1.1031,1.1032,1.1032,0,0,0,0,0,0,0,0,0,0,0,0,0,1.1081,1.1081,1.1093,1.1093,1.1093,1.1083,1.1083,1.1082,1.1044,1.1042,1.1041,1.104,1.1031,1.1032,1.1032,0,0,0,0,0,0,0,0,0,0,0,0,0,1.108,1.1081,1.1093,1.1072,1.107,1.1083,1.1083,1.1082,1.1044,1.1042,1.1041,1.104,1.1031,1.1031,1.1032,1.1064,0,0,1.1035,1.1035,0,0,0,0,0,0,0,0,1.108,1.108,1.1076,1.1074,1.1072,1.1063,1.1074,1.1076,1.1044,1.1054,1.1041,1.1039,1.1043,1.1043,1.1044,1.1064,1.1064,1.1035,1.1036,1.1036,1.1036,0,0,0,0,0,0,0,1.108,1.1081,1.1089,1.1076,1.1073,1.1064,1.1062,1.1075,1.1056,1.1053,1.105,1.1049,1.1042,1.1043,1.1043,1.1063,1.1035,1.1036,1.1036,1.1037,1.111,1.1112,0,0,0,0,0,0,1.1083,1.1081,1.1089,1.1089,1.1072,1.1065,1.1063,1.1067,1.1056,1.1053,1.1051,1.1048,1.1042,1.1042,1.1043,1.108,1.1036,1.1037,1.1037,1.1109,1.1111,1.1112,0,0,0,0,0,0,1.1083,1.1084,1.109,1.1084,1.1084,1.1067,1.1071,1.1068,1.1069,1.1054,1.105,1.1055,1.1041,1.1041,1.1059,1.108,1.1037,1.1038,1.1107,1.111,1.1112,1.1156,0,0,0,0,0,0,1.1083,1.1084,1.1096,1.1085,1.1084,1.1107,1.1073,1.1068,1.107,1.1066,1.1058,1.1055,1.104,1.1058,1.106,1.108,1.1039,1.1105,1.1108,1.1111,1.1153,1.1159,1.1165,0,0,0,0,0,1.1082,1.1109,1.1097,1.1098,1.1099,1.1108,1.1108,1.109,1.1072,1.1084,1.1075,1.1055,1.1077,1.1061,1.1062,1.1083,1.1104,1.1108,1.1111,1.115,1.1158,1.1165,0,0,0,0,0,0,1.1124,1.1107,1.1093,1.1117,1.1114,1.1101,1.1116,1.1099,1.1102,1.1098,1.1076,1.1074,1.1096,1.1091,1.1073,1.1113,1.1087,1.1091,1.1116,1.1124,1.113,1.1132,1.1039,0,0,0,0,0,1.1135,1.1144,1.1129,1.1151,1.115,1.1134,1.1137,1.1123,1.112,1.1118,1.111,1.1107,1.1113,1.1118,1.1123,1.1151,1.1149,1.1166,1.1172,1.1177,1.1181,1.1197,1.1205,1.1123,1.1123,1.1123,0,0,1.116,1.1152,1.1159,1.1159,1.1156,1.1165,1.1133,1.1144,1.1152,1.112,1.1137,1.1131,1.1126,1.115,1.116,1.1146,1.1203,1.1181,1.1186,1.1187,1.1201,1.1209,1.1216,1.1125,1.1125,1.1124,0,0,1.121,1.1204,1.1223,1.122,1.1214,1.1203,1.1207,1.1197,1.1192,1.1208,1.1185,1.1193,1.1204,1.1202,1.1202,1.1252,1.1235,1.1254,1.1287,1.1303,1.1309,1.1315,1.1334,1.1341,1.1258,1.1258,1.1258,0,1.1242,1.1255,1.1235,1.1248,1.125,1.1221,1.124,1.1238,1.1234,1.1236,1.1221,1.1234,1.1229,1.1252,1.1265,1.1265,1.1271,1.1256,1.131,1.1315,1.132,1.1338,1.1345,1.126,1.126,1.126,1.126,0,1.1295,1.1305,1.132,1.1318,1.1321,1.1337,1.1319,1.1325,1.1311,1.1301,1.1319,1.1311,1.1315,1.1319,1.1305,1.134,1.1332,1.1314,1.1287,1.1331,1.1347,1.1354,1.1264,1.1263,1.1262,1.1262,0,0,1.1372,1.1358,1.1364,1.1363,1.1355,1.1362,1.1377,1.138,1.1386,1.1384,1.1397,1.1406,1.1389,1.139,1.1376,1.1389,1.143,1.1369,1.1368,1.1382,1.147,1.1486,1.1494,1.1418,1.1419,1.142,1.1471,0,1.1421,1.1446,1.1428,1.1456,1.1465,1.1438,1.1451,1.1448,1.1439,1.1446,1.1436,1.1444,1.142,1.142,1.1432,1.1423,1.1448,1.1419,1.1431,1.1431,1.1435,1.1502,1.1518,1.1567,1.1477,1.1478,1.1479,0,1.1482,1.1483,1.1512,1.1503,1.1506,1.1518,1.152,1.1526,1.1522,1.1515,1.1516,1.1498,1.1512,1.1485,1.1505,1.1486,1.1489,1.1486,1.1487,1.1489,1.1459,1.1507,1.1581,1.159,1.1489,1.1488,1.1487,0,1.1537,1.1546,1.1565,1.1564,1.1553,1.1563,1.1558,1.1553,1.1556,1.1557,1.1559,1.1562,1.1564,1.1567,1.1551,1.1532,1.1574,1.1545,1.1569,1.157,1.1581,1.1581,1.1658,1.158,1.158,1.158,1.158,0,1.1595,1.1614,1.159,1.1601,1.1622,1.1601,1.1623,1.1616,1.1611,1.1621,1.1597,1.1607,1.1585,1.1593,1.158,1.16,1.16,1.1595,1.1592,1.1599,1.16,1.1602,1.1599,1.1582,1.1582,1.1581,1.1581,0,1.1661,1.1645,1.1664,1.1652,1.1649,1.1665,1.1655,1.1666,1.1655,1.1668,1.167,1.1654,1.1662,1.1646,1.1652,1.1643,1.1671,1.1662,1.1673,1.1671,1.1697,1.1695,1.178,1.1791,1.1705,1.1706,1.1706,0,1.1699,1.1713,1.1703,1.1708,1.1705,1.1714,1.1717,1.1696,1.1701,1.1697,1.1709,1.1715,1.1719,1.1733,1.1722,1.1727,1.1719,1.1748,1.1719,1.1726,1.1721,1.1721,1.1723,1.1754,1.1756,1.1756,1.1757,0,1.177,1.1761,1.1767,1.177,1.1774,1.1775,1.1775,1.1781,1.1759,1.1765,1.1773,1.1776,1.1783,1.179,1.1792,1.1788,1.177,1.1766,1.1772,1.178,1.1786,1.1785,1.1691,1.1764,1.1764,1.1763,1.1763,1.1762,1.1824,1.1836,1.1831,1.1838,1.1835,1.1836,1.1845,1.1836,1.1842,1.1846,1.1833,1.1845,1.184,1.1841,1.1839,1.1848,1.1835,1.1843,1.1846,1.1849,1.1854,1.1783,1.1848,1.1848,1.1848,1.1847,1.1847,0,1.1895,1.189,1.1897,1.1897,1.1903,1.1884,1.1883,1.1889,1.1899,1.1897,1.1901,1.1911,1.1918,1.1907,1.1912,1.1921,1.1913,1.1923,1.1923,1.1923,1.1864,1.1859,1.193,1.193,1.193,1.193,1.193,1.193,1.1933,1.1952,1.1943,1.1961,1.1956,1.1967,1.1968,1.1969,1.1967,1.1979,1.1984,1.1977,1.1971,1.1976,1.1981,1.1978,1.1981,1.1995,1.1989,1.1935,1.1927,1.1919,1.1914,1.1996,1.1996,1.2047,1.2048,1.2048]},{"header":{"parameterUnit":"m.s-1","parameterCategory":1,"la1":30.2991,"la2":30.254,"lo1":-89.0895,"lo2":-89.0444,"dy":0.0017,"dx":0.0017,"nx":28,"ny":28,"refTime":"2024-12-08T03:00:00:Z","depth":0,"parameterNumber":3,"parameterNumberName":"V-component_of_WINDS"},"data":[0,0,0,0,0,0,0,0,0,0,0,0,0,0,0,0,0,0,0,0,0,0,0,0,0,0,0,0,0,0,0,0,0,0,0,0,0,0,0,0,0,0,0,0,0,0,0,0,0,0,0,0,0,0,0,0,0,0,4.5379,4.538,0,4.5466,4.5467,4.5468,4.5465,4.5464,4.5462,4.5461,4.5546,4.5549,4.5552,0,0,0,0,0,0,0,0,0,0,0,0,0,4.5207,4.5211,4.5379,4.538,4.5381,4.5466,4.5467,4.5468,4.5465,4.5464,4.5462,4.5461,4.5544,4.5548,4.5552,0,0,0,0,0,0,0,0,0,0,0,0,0,4.5287,4.5212,4.5379,4.539,4.5392,4.5466,4.5467,4.5469,4.5465,4.5463,4.5462,4.546,4.5543,4.5548,4.5553,4.562,0,0,4.5568,4.5571,0,0,0,0,0,0,0,0,4.5282,4.5293,4.5387,4.5389,4.5392,4.5453,4.5437,4.5519,4.5466,4.5437,4.5461,4.5459,4.5516,4.5523,4.5543,4.5624,4.5628,4.5569,4.5572,4.5574,4.5576,0,0,0,0,0,0,0,4.5277,4.5289,4.5413,4.5389,4.5391,4.539,4.5399,4.5453,4.5485,4.544,4.544,4.545,4.5517,4.5538,4.5545,4.5629,4.5569,4.5573,4.5576,4.5578,4.5772,4.5774,0,0,0,0,0,0,4.5269,4.5285,4.5411,4.5416,4.5332,4.5394,4.5405,4.5435,4.5485,4.5491,4.5452,4.545,4.5531,4.5539,4.5548,4.5633,4.5574,4.5579,4.5582,4.577,4.5772,4.5775,0,0,0,0,0,0,4.5266,4.5281,4.5407,4.5351,4.5367,4.5399,4.5433,4.5438,4.5459,4.5494,4.5499,4.5468,4.5529,4.5541,4.5603,4.5635,4.5581,4.5586,4.5767,4.577,4.5773,4.5801,0,0,0,0,0,0,4.5261,4.5279,4.5306,4.5351,4.537,4.5462,4.5435,4.5441,4.5469,4.5467,4.5511,4.5516,4.5529,4.5596,4.5608,4.5641,4.559,4.5765,4.5769,4.5772,4.5797,4.5804,4.5811,0,0,0,0,0,4.5255,4.5309,4.5307,4.5323,4.5404,4.5464,4.5474,4.5489,4.5471,4.5498,4.5521,4.5515,4.5629,4.5602,4.5616,4.5651,4.5763,4.5768,4.5772,4.5794,4.5803,4.581,0,0,0,0,0,0,4.5265,4.5315,4.5314,4.5384,4.542,4.5463,4.5498,4.5498,4.5538,4.5535,4.5549,4.5559,4.5623,4.5642,4.5611,4.572,4.5693,4.5701,4.5705,4.5714,4.5721,4.5716,4.5594,0,0,0,0,0,4.5275,4.5321,4.5362,4.542,4.5438,4.5465,4.5491,4.55,4.5537,4.5552,4.5579,4.5614,4.5658,4.5686,4.5728,4.5799,4.5809,4.583,4.5837,4.5842,4.5849,4.5891,4.5901,4.579,4.579,4.579,0,0,4.5297,4.533,4.5358,4.5423,4.5452,4.5499,4.5478,4.5527,4.5563,4.5559,4.5621,4.5641,4.5681,4.5749,4.578,4.5768,4.5882,4.5848,4.5852,4.5857,4.5897,4.5907,4.5916,4.5793,4.5793,4.5792,0,0,4.5362,4.5391,4.5444,4.5474,4.5519,4.5536,4.5549,4.5593,4.5607,4.567,4.5669,4.5709,4.5784,4.5814,4.5838,4.5916,4.5913,4.5928,4.5965,4.6005,4.6013,4.6021,4.6052,4.6062,4.5935,4.5935,4.5935,0,4.5384,4.5456,4.5471,4.5523,4.5552,4.5552,4.5606,4.5633,4.5689,4.5709,4.5694,4.579,4.5816,4.5892,4.5911,4.593,4.5946,4.5925,4.6011,4.6019,4.6027,4.6056,4.6067,4.5937,4.5937,4.5936,4.5936,0,4.5482,4.5532,4.5569,4.5626,4.5658,4.571,4.5733,4.5764,4.5769,4.5788,4.5852,4.5884,4.5934,4.5952,4.5956,4.6029,4.602,4.6008,4.5982,4.6039,4.6067,4.6078,4.594,4.5939,4.5938,4.5938,0,0,4.5557,4.5622,4.5636,4.5662,4.5712,4.575,4.5802,4.5853,4.5881,4.5918,4.5963,4.6027,4.6017,4.6045,4.6052,4.6087,4.615,4.6071,4.6072,4.6087,4.6234,4.6246,4.6258,4.6147,4.6149,4.6151,4.6232,0,4.5629,4.5725,4.574,4.5824,4.5871,4.5872,4.5917,4.5952,4.5971,4.6013,4.6032,4.6079,4.6061,4.6078,4.6112,4.6135,4.618,4.6129,4.619,4.6192,4.6184,4.6272,4.6284,4.636,4.6243,4.6244,4.6246,0,4.5727,4.5771,4.586,4.5905,4.5926,4.5967,4.6016,4.6055,4.6095,4.6106,4.6138,4.6142,4.6196,4.6166,4.6241,4.6206,4.6231,4.6246,4.6249,4.6258,4.6225,4.6286,4.6384,4.6396,4.6262,4.6261,4.626,0,4.5778,4.5857,4.5922,4.5944,4.5997,4.6027,4.605,4.6088,4.6118,4.616,4.618,4.6226,4.6252,4.6287,4.6304,4.628,4.6379,4.6349,4.639,4.639,4.6414,4.6413,4.652,4.6424,4.6424,4.6424,4.6424,0,4.5859,4.5914,4.5946,4.5986,4.6048,4.6064,4.6124,4.6146,4.618,4.6224,4.6225,4.6266,4.6284,4.6327,4.6339,4.6401,4.6411,4.6423,4.6426,4.6425,4.6424,4.6444,4.644,4.6427,4.6426,4.6426,4.6425,0,4.5927,4.595,4.6021,4.6066,4.6079,4.6123,4.6161,4.62,4.6218,4.6273,4.6287,4.6316,4.6367,4.6386,4.6447,4.6456,4.6529,4.6525,4.6516,4.6518,4.656,4.6557,4.6686,4.6705,4.6594,4.6595,4.6596,0,4.5979,4.6022,4.6073,4.6104,4.6129,4.6177,4.6209,4.6226,4.6258,4.6307,4.634,4.6392,4.6434,4.6516,4.6542,4.6589,4.6589,4.6631,4.6596,4.6595,4.6594,4.6593,4.6598,4.6639,4.664,4.6641,4.6641,0,4.6071,4.608,4.6127,4.6178,4.6216,4.6256,4.6295,4.632,4.6343,4.6379,4.6433,4.6466,4.653,4.6582,4.6631,4.6653,4.6652,4.6652,4.6665,4.6665,4.666,4.6667,4.6538,4.6649,4.6649,4.6648,4.6648,4.6647,4.6134,4.6174,4.6217,4.6269,4.63,4.6337,4.6377,4.6401,4.6447,4.6502,4.6508,4.6567,4.6605,4.6672,4.6697,4.6742,4.6731,4.6748,4.6753,4.6758,4.6763,4.665,4.675,4.675,4.675,4.675,4.6749,0,4.6229,4.6257,4.6305,4.6361,4.6402,4.6398,4.6441,4.6475,4.6528,4.6565,4.6607,4.667,4.672,4.675,4.68,4.6831,4.6832,4.6844,4.6843,4.6849,4.6768,4.6754,4.6843,4.6843,4.6843,4.6843,4.6843,4.6843,4.6283,4.6351,4.6366,4.6449,4.6476,4.6535,4.656,4.6595,4.6625,4.6695,4.6738,4.6758,4.6792,4.6845,4.6891,4.6899,4.6918,4.6932,4.6939,4.6864,4.6854,4.6845,4.6832,4.6936,4.6936,4.7017,4.7017,4.7018]}]]